Terminal Aerodrome Forecast
Issued by NWS

Home | Current Version | Previous Version | Text Only | Print | Product List | Glossary On
Versions: 1 2 3 4 5 6 7 8 9 10 11 12 13 14 15 16 17 18 19 20 21 22 23 24 25 26 27 28 29 30 31 32 33 34 35 36 37 38 39 40 41 42 43 44 45 46 47 48 49 50
000
FTUS42 KMFL 281902 AAA
TAFFXE
TAF AMD
KFXE 281902Z 2819/0118 10009KT P6SM VCTS SCT010 OVC020CB
      TEMPO 2819/2820 09012G20KT 6SM -TSRA BKN009CB OVC020
     FM282000 08010KT P6SM VCSH SCT020 BKN050
     FM010000 09009KT P6SM SCT060
     FM011200 10009KT P6SM BKN050
     FM011500 11013G19KT P6SM OVC025
     FM011600 11013KT P6SM BKN050
     FM011700 11013KT P6SM SCT250=

USA.gov is the U.S. government's official web portal to all federal, state and local government web resources and services.